TimeEDT,TemperatureF,Dew PointF,Humidity,Sea Level PressureIn,VisibilityMPH,Wind Direction,Wind SpeedMPH,Gust SpeedMPH,PrecipitationIn,Events,Conditions,WindDirDegrees,DateUTC
12:53 AM,66.0,59.0,78,29.89,10.0,SE,3.5,-,N/A,,Overcast,140,2013-08-01 04:53:00
1:53 AM,64.9,57.9,78,29.88,10.0,South,3.5,-,N/A,,Overcast,170,2013-08-01 05:53:00
2:53 AM,64.9,59.0,81,29.87,10.0,Calm,Calm,-,N/A,,Overcast,0,2013-08-01 06:53:00
3:27 AM,64.4,60.8,88,29.87,10.0,Calm,Calm,-,N/A,,Overcast,0,2013-08-01 07:27:00
3:53 AM,63.0,60.1,90,29.86,10.0,Calm,Calm,-,N/A,,Scattered Clouds,0,2013-08-01 07:53:00
4:53 AM,62.1,60.1,93,29.86,8.0,SW,3.5,-,N/A,,Clear,220,2013-08-01 08:53:00
5:53 AM,61.0,59.0,93,29.87,8.0,SSW,3.5,-,N/A,,Clear,200,2013-08-01 09:53:00
6:53 AM,60.1,57.9,93,29.88,8.0,SSW,3.5,-,N/A,,Mostly Cloudy,200,2013-08-01 10:53:00
7:53 AM,63.0,60.1,90,29.88,10.0,Calm,Calm,-,N/A,,Mostly Cloudy,0,2013-08-01 11:53:00
8:53 AM,66.0,60.1,81,29.88,10.0,Calm,Calm,-,N/A,,Mostly Cloudy,0,2013-08-01 12:53:00
9:53 AM,70.0,57.9,65,29.88,10.0,West,3.5,-,N/A,,Mostly Cloudy,260,2013-08-01 13:53:00
10:53 AM,71.1,59.0,66,29.89,10.0,Variable,5.8,-,N/A,,Mostly Cloudy,0,2013-08-01 14:53:00
11:53 AM,73.0,55.0,53,29.89,10.0,NNW,9.2,-,N/A,,Scattered Clouds,330,2013-08-01 15:53:00
12:53 PM,72.0,54.0,53,29.89,10.0,North,3.5,-,N/A,,Mostly Cloudy,360,2013-08-01 16:53:00
1:53 PM,75.0,52.0,44,29.88,10.0,North,10.4,-,N/A,,Mostly Cloudy,350,2013-08-01 17:53:00
2:53 PM,77.0,50.0,39,29.88,10.0,WNW,12.7,-,N/A,,Scattered Clouds,300,2013-08-01 18:53:00
3:53 PM,75.9,50.0,40,29.88,10.0,WNW,17.3,-,N/A,,Scattered Clouds,290,2013-08-01 19:53:00
4:53 PM,75.9,50.0,40,29.90,10.0,NW,15.0,-,N/A,,Scattered Clouds,320,2013-08-01 20:53:00
5:53 PM,75.0,52.0,44,29.89,10.0,NW,11.5,16.1,N/A,,Scattered Clouds,310,2013-08-01 21:53:00
6:53 PM,75.0,52.0,44,29.87,10.0,WNW,11.5,-,N/A,,Scattered Clouds,300,2013-08-01 22:53:00
7:53 PM,73.0,52.0,48,29.88,10.0,WNW,9.2,-,N/A,,Scattered Clouds,290,2013-08-01 23:53:00
8:53 PM,68.0,54.0,61,29.87,10.0,SW,3.5,-,N/A,,Scattered Clouds,230,2013-08-02 00:53:00
9:53 PM,64.0,54.0,70,29.88,10.0,Calm,Calm,-,N/A,,Scattered Clouds,0,2013-08-02 01:53:00
10:53 PM,64.0,54.0,70,29.88,10.0,Calm,Calm,-,N/A,,Clear,0,2013-08-02 02:53:00
11:53 PM,63.0,54.0,72,29.88,10.0,Calm,Calm,-,N/A,,Scattered Clouds,0,2013-08-02 03:53:00